| time (UTC) | temp F | wind direction | speed MPH | gust MPH | rain 1hr in | rain 24hr in | rain mn in | humidity % | barometer mb |
| 20260506113002 | 62 | 15 | 1.0 | 2.0 | 0.00 | 0.00 | 0.00 | 84 | 1011.4 |
| 20260506112459 | 62 | 56 | 0.0 | 0.0 | 0.00 | 0.00 | 0.00 | 85 | 1011.1 |
| 20260506111956 | 62 | 39 | 0.0 | 1.0 | 0.00 | 0.00 | 0.00 | 85 | 1011.0 |
| 20260506111454 | 62 | 56 | 1.0 | 2.0 | 0.00 | 0.00 | 0.00 | 85 | 1011.2 |
| 20260506110951 | 62 | 113 | 3.0 | 3.0 | 0.00 | 0.00 | 0.00 | 85 | 1011.0 |
| 20260506110449 | 62 | 52 | 0.0 | 1.0 | 0.00 | 0.00 | 0.00 | 85 | 1010.8 |
| 20260506105945 | 62 | 39 | 0.0 | 0.0 | 0.00 | 0.00 | 0.00 | 84 | 1011.0 |
| 20260506105442 | 62 | 30 | 1.0 | 2.0 | 0.00 | 0.00 | 0.00 | 84 | 1010.9 |
| 20260506104939 | 61 | 200 | 5.0 | 8.0 | 0.00 | 0.00 | 0.00 | 84 | 1011.0 |
| 20260506104437 | 61 | 236 | 2.0 | 2.0 | 0.00 | 0.00 | 0.00 | 86 | 1010.9 |
| 20260506103935 | 61 | 70 | 0.0 | 1.0 | 0.00 | 0.00 | 0.00 | 86 | 1010.8 |
| 20260506103432 | 60 | 212 | 5.0 | 6.0 | 0.00 | 0.00 | 0.00 | 86 | 1010.9 |
| 20260506102929 | 60 | 50 | 1.0 | 2.0 | 0.00 | 0.00 | 0.00 | 88 | 1011.1 |
| 20260506102427 | 59 | 1 | 0.0 | 0.0 | 0.00 | 0.00 | 0.00 | 91 | 1011.0 |
| 20260506101924 | 57 | 77 | 0.0 | 0.0 | 0.00 | 0.00 | 0.00 | 94 | 1011.2 |
| 20260506101420 | 54 | 255 | 3.0 | 5.0 | 0.00 | 0.00 | 0.00 | 99 | 1010.8 |
| 20260506100918 | 52 | 358 | 0.0 | 0.0 | 0.00 | 0.00 | 0.00 | 99 | 1011.0 |
| 20260506100416 | 52 | 359 | 0.0 | 0.0 | 0.00 | 0.00 | 0.00 | 99 | 1011.0 |
| 20260506095914 | 52 | 332 | 0.0 | 0.0 | 0.00 | 0.00 | 0.00 | 99 | 1011.0 |
| 20260506095412 | 52 | 338 | 0.0 | 0.0 | 0.00 | 0.00 | 0.00 | 99 | 1010.9 |
| 20260506094908 | 52 | 2 | 0.0 | 0.0 | 0.00 | 0.00 | 0.00 | 99 | 1011.0 |
| 20260506094407 | 52 | 2 | 0.0 | 0.0 | 0.00 | 0.00 | 0.00 | 99 | 1010.9 |
| 20260506093904 | 52 | 25 | 0.0 | 0.0 | 0.00 | 0.00 | 0.00 | 99 | 1010.7 |
| 20260506093401 | 51 | 358 | 0.0 | 0.0 | 0.00 | 0.00 | 0.00 | 99 | 1010.8 |
| 20260506092859 | 51 | 358 | 0.0 | 0.0 | 0.00 | 0.00 | 0.00 | 99 | 1010.9 |
| 20260506092357 | 51 | 30 | 0.0 | 0.0 | 0.00 | 0.00 | 0.00 | 99 | 1010.8 |
| 20260506091853 | 51 | 236 | 0.0 | 0.0 | 0.00 | 0.00 | 0.00 | 99 | 1010.9 |
| 20260506091351 | 52 | 235 | 0.0 | 0.0 | 0.00 | 0.00 | 0.00 | 99 | 1010.9 |
| 20260506090848 | 51 | 235 | 0.0 | 0.0 | 0.00 | 0.00 | 0.00 | 99 | 1010.9 |
| 20260506090346 | 51 | 235 | 0.0 | 0.0 | 0.00 | 0.00 | 0.00 | 99 | 1010.8 |
| 20260506085842 | 51 | 236 | 0.0 | 0.0 | 0.00 | 0.00 | 0.00 | 99 | 1011.0 |
| 20260506085338 | 52 | 236 | 0.0 | 0.0 | 0.00 | 0.00 | 0.00 | 99 | 1011.2 |
| 20260506084835 | 52 | 236 | 0.0 | 0.0 | 0.00 | 0.00 | 0.00 | 99 | 1011.2 |
| 20260506084332 | 52 | 236 | 0.0 | 0.0 | 0.00 | 0.00 | 0.00 | 99 | 1011.3 |
| 20260506083829 | 53 | 236 | 0.0 | 0.0 | 0.00 | 0.00 | 0.00 | 99 | 1011.1 |
| 20260506083326 | 53 | 236 | 0.0 | 0.0 | 0.00 | 0.00 | 0.00 | 99 | 1011.2 |
| 20260506082824 | 53 | 236 | 0.0 | 0.0 | 0.00 | 0.00 | 0.00 | 99 | 1011.2 |
| 20260506082320 | 53 | 236 | 0.0 | 0.0 | 0.00 | 0.00 | 0.00 | 99 | 1011.0 |
| 20260506081816 | 53 | 236 | 0.0 | 0.0 | 0.00 | 0.00 | 0.00 | 99 | 1011.4 |
| 20260506081314 | 53 | 236 | 0.0 | 0.0 | 0.00 | 0.00 | 0.00 | 99 | 1011.1 |
| 20260506080812 | 53 | 236 | 0.0 | 0.0 | 0.00 | 0.00 | 0.00 | 99 | 1011.1 |
| 20260506080308 | 54 | 236 | 0.0 | 0.0 | 0.00 | 0.00 | 0.00 | 99 | 1011.1 |
| 20260506073252 | 55 | 236 | 0.0 | 0.0 | 0.00 | 0.00 | 0.00 | 97 | 1011.5 |
| 20260506072749 | 55 | 236 | 0.0 | 0.0 | 0.00 | 0.00 | 0.00 | 97 | 1011.5 |
| 20260506072246 | 55 | 236 | 0.0 | 0.0 | 0.00 | 0.00 | 0.00 | 97 | 1011.8 |
| 20260506071744 | 56 | 236 | 0.0 | 0.0 | 0.00 | 0.00 | 0.00 | 96 | 1011.8 |
| 20260506071242 | 56 | 236 | 0.0 | 0.0 | 0.00 | 0.00 | 0.00 | 96 | 1011.7 |
| 20260506070738 | 56 | 237 | 0.0 | 0.0 | 0.00 | 0.00 | 0.00 | 95 | 1011.6 |
| 20260506070235 | 57 | 237 | 0.0 | 0.0 | 0.00 | 0.00 | 0.00 | 95 | 1011.8 |
| 20260506062212 | 57 | 37 | 0.0 | 0.0 | 0.00 | 0.00 | 0.00 | 92 | 1012.1 |
| 20260506061708 | 58 | 37 | 0.0 | 0.0 | 0.00 | 0.00 | 0.00 | 92 | 1012.2 |
| 20260506061206 | 58 | 37 | 0.0 | 0.0 | 0.00 | 0.00 | 0.00 | 91 | 1012.1 |
| 20260506060704 | 58 | 37 | 0.0 | 0.0 | 0.00 | 0.00 | 0.00 | 92 | 1012.1 |
| 20260506060200 | 59 | 37 | 0.0 | 0.0 | 0.00 | 0.00 | 0.00 | 91 | 1012.4 |
| 20260506051133 | 60 | 17 | 0.0 | 0.0 | 0.00 | 0.00 | 0.00 | 88 | 1012.6 |
| 20260506050631 | 60 | 17 | 0.0 | 0.0 | 0.00 | 0.00 | 0.00 | 86 | 1012.5 |
| 20260506050128 | 61 | 49 | 0.0 | 0.0 | 0.00 | 0.00 | 0.00 | 85 | 1012.5 |
| 20260506045121 | 62 | 8 | 0.0 | 1.0 | 0.00 | 0.00 | 0.00 | 85 | 1012.6 |
| 20260506044619 | 62 | 288 | 6.0 | 8.0 | 0.00 | 0.00 | 0.00 | 85 | 1012.5 |
| 20260506044116 | 62 | 9 | 0.0 | 0.0 | 0.00 | 0.00 | 0.00 | 83 | 1012.5 |
| 20260506043613 | 61 | 350 | 0.0 | 0.0 | 0.00 | 0.00 | 0.00 | 80 | 1012.5 |
| 20260506043111 | 62 | 350 | 0.0 | 1.0 | 0.00 | 0.00 | 0.00 | 79 | 1012.2 |
| 20260506042610 | 62 | 11 | 0.0 | 0.0 | 0.00 | 0.00 | 0.00 | 77 | 1012.3 |
| 20260506042108 | 63 | 11 | 0.0 | 0.0 | 0.00 | 0.00 | 0.00 | 76 | 1012.1 |
| 20260506041606 | 63 | 11 | 0.0 | 0.0 | 0.00 | 0.00 | 0.00 | 74 | 1011.9 |
| 20260506041102 | 63 | 11 | 0.0 | 0.0 | 0.00 | 0.00 | 0.00 | 75 | 1011.9 |
| 20260506040600 | 64 | 11 | 0.0 | 0.0 | 0.00 | 0.00 | 0.00 | 73 | 1011.6 |
| 20260506040056 | 65 | 11 | 0.0 | 0.0 | 0.00 | 0.00 | 0.00 | 69 | 1011.6 |
| 20260506035553 | 65 | 11 | 0.0 | 0.0 | 0.00 | 0.00 | 0.00 | 68 | 1011.7 |
| 20260506035050 | 66 | 11 | 0.0 | 0.0 | 0.00 | 0.00 | 0.00 | 66 | 1011.5 |
| 20260506034547 | 67 | 24 | 0.0 | 0.0 | 0.00 | 0.00 | 0.00 | 67 | 1011.6 |
| 20260506034044 | 68 | 45 | 0.0 | 0.0 | 0.00 | 0.00 | 0.00 | 63 | 1011.5 |
| 20260506033542 | 69 | 341 | 1.0 | 2.0 | 0.00 | 0.00 | 0.00 | 58 | 1011.4 |
| 20260506033038 | 70 | 357 | 0.0 | 0.0 | 0.00 | 0.00 | 0.00 | 54 | 1011.5 |
| 20260506032536 | 69 | 56 | 0.0 | 0.0 | 0.00 | 0.00 | 0.00 | 55 | 1011.4 |
| 20260506032032 | 70 | 72 | 0.0 | 0.0 | 0.00 | 0.00 | 0.00 | 53 | 1011.2 |
| 20260506031530 | 70 | 53 | 0.0 | 0.0 | 0.00 | 0.00 | 0.00 | 58 | 1011.3 |
| 20260506031027 | 70 | 60 | 0.0 | 0.0 | 0.00 | 0.00 | 0.00 | 58 | 1011.2 |
| 20260506030525 | 68 | 56 | 0.0 | 0.0 | 0.00 | 0.00 | 0.00 | 60 | 1011.2 |
| 20260506030022 | 68 | 25 | 0.0 | 0.0 | 0.00 | 0.00 | 0.00 | 59 | 1011.3 |
| 20260506025519 | 66 | 204 | 2.0 | 5.0 | 0.00 | 0.00 | 0.00 | 62 | 1011.1 |
| 20260506025015 | 62 | 45 | 1.0 | 2.0 | 0.00 | 0.00 | 0.00 | 79 | 1011.0 |
| 20260506024512 | 61 | 14 | 0.0 | 0.0 | 0.00 | 0.00 | 0.00 | 86 | 1011.3 |
| 20260506024008 | 61 | 44 | 0.0 | 0.0 | 0.00 | 0.00 | 0.00 | 91 | 1011.2 |
| 20260506023504 | 60 | 45 | 0.0 | 0.0 | 0.00 | 0.00 | 0.00 | 95 | 1011.2 |
| 20260506023002 | 61 | 77 | 0.0 | 0.0 | 0.00 | 0.00 | 0.00 | 95 | 1011.3 |
| 20260506022459 | 61 | 77 | 0.0 | 0.0 | 0.00 | 0.00 | 0.00 | 95 | 1011.2 |
| 20260506021957 | 61 | 77 | 0.0 | 0.0 | 0.00 | 0.00 | 0.00 | 95 | 1011.5 |
| 20260506021454 | 61 | 77 | 0.0 | 0.0 | 0.00 | 0.00 | 0.00 | 95 | 1011.3 |
| 20260506020951 | 61 | 77 | 0.0 | 0.0 | 0.00 | 0.00 | 0.00 | 94 | 1011.4 |
| 20260506020449 | 61 | 77 | 0.0 | 0.0 | 0.00 | 0.00 | 0.00 | 94 | 1011.4 |
| 20260506015946 | 61 | 65 | 0.0 | 0.0 | 0.00 | 0.00 | 0.00 | 93 | 1011.5 |
| 20260506015443 | 61 | 65 | 0.0 | 0.0 | 0.00 | 0.00 | 0.00 | 94 | 1011.4 |
| 20260506014940 | 61 | 65 | 0.0 | 0.0 | 0.00 | 0.00 | 0.00 | 93 | 1011.5 |
| 20260506014437 | 61 | 65 | 0.0 | 0.0 | 0.00 | 0.00 | 0.00 | 92 | 1011.6 |
| 20260506013933 | 62 | 65 | 0.0 | 0.0 | 0.00 | 0.00 | 0.00 | 91 | 1011.4 |
| 20260506013432 | 62 | 65 | 0.0 | 0.0 | 0.00 | 0.00 | 0.00 | 90 | 1011.2 |
| 20260506012928 | 63 | 65 | 0.0 | 0.0 | 0.00 | 0.00 | 0.00 | 89 | 1011.2 |
| 20260506012424 | 62 | 65 | 0.0 | 0.0 | 0.00 | 0.00 | 0.00 | 87 | 1011.2 |
| 20260506011921 | 62 | 65 | 0.0 | 0.0 | 0.00 | 0.00 | 0.00 | 85 | 1011.1 |
| 20260506011418 | 62 | 65 | 0.0 | 0.0 | 0.00 | 0.00 | 0.00 | 86 | 1011.1 |
| 20260506010915 | 62 | 65 | 0.0 | 0.0 | 0.00 | 0.00 | 0.00 | 87 | 1010.9 |
| 20260506010414 | 62 | 65 | 0.0 | 0.0 | 0.00 | 0.00 | 0.00 | 89 | 1010.9 |
| 20260506005910 | 62 | 65 | 0.0 | 0.0 | 0.00 | 0.00 | 0.00 | 89 | 1010.9 |
| 20260506005408 | 62 | 65 | 0.0 | 0.0 | 0.00 | 0.00 | 0.00 | 88 | 1010.8 |
| 20260506004903 | 62 | 41 | 0.0 | 0.0 | 0.00 | 0.00 | 0.00 | 87 | 1010.7 |
| 20260506004401 | 62 | 107 | 0.0 | 0.0 | 0.00 | 0.00 | 0.00 | 87 | 1010.8 |
| 20260506003857 | 62 | 65 | 0.0 | 0.0 | 0.00 | 0.00 | 0.00 | 86 | 1010.7 |
| 20260506003353 | 62 | 65 | 0.0 | 0.0 | 0.00 | 0.00 | 0.00 | 85 | 1010.5 |
| 20260506002850 | 63 | 65 | 1.0 | 1.0 | 0.00 | 0.00 | 0.00 | 84 | 1010.7 |
| 20260506002346 | 64 | 35 | 0.0 | 0.0 | 0.00 | 0.00 | 0.00 | 79 | 1010.6 |
| 20260506001842 | 64 | 35 | 0.0 | 0.0 | 0.00 | 0.00 | 0.00 | 80 | 1010.6 |
| 20260506001339 | 64 | 35 | 0.0 | 0.0 | 0.00 | 0.00 | 0.00 | 81 | 1010.9 |
| 20260506000836 | 64 | 348 | 0.0 | 0.0 | 0.00 | 0.00 | 0.00 | 76 | 1010.6 |
| 20260506000334 | 65 | 65 | 0.0 | 0.0 | 0.00 | 0.00 | 0.00 | 80 | 1010.5 |
| 20260505235830 | 65 | 65 | 0.0 | 0.0 | 0.00 | 0.00 | 0.00 | 80 | 1010.6 |
| 20260505235328 | 65 | 187 | 0.0 | 0.0 | 0.00 | 0.00 | 0.00 | 80 | 1010.5 |
| 20260505234824 | 65 | 187 | 0.0 | 0.0 | 0.00 | 0.00 | 0.00 | 79 | 1010.2 |
| 20260505234322 | 65 | 187 | 0.0 | 0.0 | 0.00 | 0.00 | 0.00 | 78 | 1010.3 |
| 20260505233819 | 66 | 187 | 0.0 | 0.0 | 0.00 | 0.00 | 0.00 | 78 | 1010.3 |
| 20260505233317 | 66 | 221 | 0.0 | 0.0 | 0.00 | 0.00 | 0.00 | 78 | 1010.4 |
| 20260505232814 | 66 | 340 | 0.0 | 0.0 | 0.00 | 0.00 | 0.00 | 79 | 1010.2 |
| 20260505232311 | 67 | 340 | 0.0 | 0.0 | 0.00 | 0.00 | 0.00 | 77 | 1010.3 |
| 20260505231808 | 67 | 341 | 0.0 | 0.0 | 0.00 | 0.00 | 0.00 | 75 | 1010.4 |
| 20260505231306 | 67 | 329 | 0.0 | 0.0 | 0.00 | 0.00 | 0.00 | 72 | 1010.1 |
| 20260505230804 | 67 | 192 | 0.0 | 0.0 | 0.00 | 0.00 | 0.00 | 75 | 1010.2 |
| 20260505230301 | 68 | 1 | 0.0 | 0.0 | 0.00 | 0.00 | 0.00 | 71 | 1010.2 |
| 20260505225757 | 69 | 330 | 0.0 | 0.0 | 0.00 | 0.00 | 0.00 | 67 | 1010.2 |
| 20260505225255 | 70 | 319 | 0.0 | 0.0 | 0.00 | 0.00 | 0.00 | 65 | 1010.7 |
| 20260505224749 | 71 | 346 | 0.0 | 0.0 | 0.00 | 0.00 | 0.00 | 62 | 1010.3 |
| 20260505224247 | 73 | 353 | 2.0 | 2.0 | 0.00 | 0.00 | 0.00 | 56 | 1010.1 |
| 20260505223745 | 77 | 339 | 1.0 | 2.0 | 0.00 | 0.00 | 0.00 | 43 | 1010.1 |
| 20260505223241 | 77 | 40 | 1.0 | 1.0 | 0.00 | 0.00 | 0.00 | 40 | 1009.5 |
| 20260505222737 | 78 | 24 | 2.0 | 5.0 | 0.00 | 0.00 | 0.00 | 38 | 1009.3 |
| 20260505222233 | 79 | 17 | 0.0 | 0.0 | 0.00 | 0.00 | 0.00 | 38 | 1009.1 |
| 20260505221731 | 78 | 40 | 0.0 | 0.0 | 0.00 | 0.00 | 0.00 | 38 | 1009.0 |
| 20260505221227 | 78 | 355 | 2.0 | 3.0 | 0.00 | 0.00 | 0.00 | 37 | 1008.9 |
| 20260505220724 | 78 | 86 | 4.0 | 5.0 | 0.00 | 0.00 | 0.00 | 38 | 1008.9 |
| 20260505220222 | 78 | 56 | 1.0 | 1.0 | 0.00 | 0.00 | 0.00 | 40 | 1008.7 |
| 20260505215720 | 78 | 56 | 2.0 | 5.0 | 0.00 | 0.00 | 0.00 | 37 | 1008.8 |
| 20260505215217 | 78 | 34 | 0.0 | 0.0 | 0.00 | 0.00 | 0.00 | 39 | 1008.6 |
| 20260505214715 | 79 | 44 | 2.0 | 3.0 | 0.00 | 0.00 | 0.00 | 39 | 1008.4 |
| 20260505214212 | 79 | 345 | 0.0 | 0.0 | 0.00 | 0.00 | 0.00 | 39 | 1008.4 |
| 20260505213709 | 79 | 351 | 0.0 | 0.0 | 0.00 | 0.00 | 0.00 | 38 | 1008.2 |
| 20260505213206 | 80 | 38 | 0.0 | 1.0 | 0.00 | 0.00 | 0.00 | 39 | 1008.3 |
| 20260505212702 | 80 | 353 | 3.0 | 5.0 | 0.00 | 0.00 | 0.00 | 36 | 1008.2 |
| 20260505212200 | 82 | 30 | 0.0 | 0.0 | 0.00 | 0.00 | 0.00 | 37 | 1008.2 |
| 20260505211657 | 83 | 76 | 2.0 | 3.0 | 0.00 | 0.00 | 0.00 | 35 | 1008.2 |
| 20260505211154 | 83 | 5 | 3.0 | 3.0 | 0.00 | 0.00 | 0.00 | 35 | 1008.0 |
| 20260505210650 | 83 | 53 | 5.0 | 6.0 | 0.00 | 0.00 | 0.00 | 37 | 1008.0 |
| 20260505210147 | 83 | 82 | 2.0 | 3.0 | 0.00 | 0.00 | 0.00 | 38 | 1007.7 |
| 20260505205644 | 83 | 37 | 3.0 | 6.0 | 0.00 | 0.00 | 0.00 | 37 | 1008.0 |
| 20260505205143 | 83 | 70 | 3.0 | 5.0 | 0.00 | 0.00 | 0.00 | 36 | 1007.8 |
| 20260505204639 | 82 | 258 | 1.0 | 2.0 | 0.00 | 0.00 | 0.00 | 40 | 1007.8 |
| 20260505204137 | 82 | 130 | 3.0 | 6.0 | 0.00 | 0.00 | 0.00 | 38 | 1008.0 |
| 20260505203634 | 82 | 71 | 3.0 | 3.0 | 0.00 | 0.00 | 0.00 | 38 | 1007.9 |
| 20260505203131 | 82 | 79 | 3.0 | 5.0 | 0.00 | 0.00 | 0.00 | 35 | 1008.2 |
| 20260505202626 | 82 | 123 | 3.0 | 3.0 | 0.00 | 0.00 | 0.00 | 38 | 1008.3 |
| 20260505202122 | 83 | 263 | 4.0 | 14.0 | 0.00 | 0.00 | 0.00 | 35 | 1008.5 |
| 20260505201619 | 83 | 335 | 3.0 | 5.0 | 0.00 | 0.00 | 0.00 | 38 | 1008.3 |
| 20260505201117 | 83 | 81 | 3.0 | 3.0 | 0.00 | 0.00 | 0.00 | 38 | 1008.6 |
| 20260505200615 | 84 | 117 | 2.0 | 2.0 | 0.00 | 0.00 | 0.00 | 40 | 1008.1 |
| 20260505200112 | 83 | 65 | 1.0 | 1.0 | 0.00 | 0.00 | 0.00 | 43 | 1008.0 |
| 20260505195608 | 82 | 4 | 3.0 | 3.0 | 0.00 | 0.00 | 0.00 | 38 | 1008.2 |
| 20260505195105 | 84 | 16 | 2.0 | 2.0 | 0.00 | 0.00 | 0.00 | 39 | 1008.2 |
| 20260505194602 | 84 | 141 | 4.0 | 5.0 | 0.00 | 0.00 | 0.00 | 41 | 1008.2 |
| 20260505194058 | 83 | 336 | 2.0 | 3.0 | 0.00 | 0.00 | 0.00 | 40 | 1008.2 |
| 20260505193555 | 82 | 77 | 3.0 | 5.0 | 0.00 | 0.00 | 0.00 | 42 | 1008.2 |
| 20260505193052 | 83 | 12 | 5.0 | 7.0 | 0.00 | 0.00 | 0.00 | 38 | 1008.7 |
| 20260505192551 | 84 | 243 | 1.0 | 3.0 | 0.00 | 0.00 | 0.00 | 39 | 1008.5 |
| 20260505192048 | 83 | 168 | 3.0 | 5.0 | 0.00 | 0.00 | 0.00 | 41 | 1008.6 |
| 20260505191546 | 82 | 137 | 4.0 | 6.0 | 0.00 | 0.00 | 0.00 | 40 | 1008.6 |
| 20260505191044 | 84 | 210 | 9.0 | 14.0 | 0.00 | 0.00 | 0.00 | 38 | 1008.6 |
| 20260505190538 | 84 | 191 | 3.0 | 5.0 | 0.00 | 0.00 | 0.00 | 41 | 1008.7 |
| 20260505190034 | 84 | 180 | 5.0 | 9.0 | 0.00 | 0.00 | 0.00 | 41 | 1008.6 |
| 20260505185531 | 84 | 49 | 1.0 | 2.0 | 0.00 | 0.00 | 0.00 | 39 | 1008.7 |
| 20260505185027 | 84 | 59 | 0.0 | 1.0 | 0.00 | 0.00 | 0.00 | 42 | 1008.7 |
| 20260505184524 | 84 | 103 | 6.0 | 8.0 | 0.00 | 0.00 | 0.00 | 38 | 1008.8 |
| 20260505184021 | 84 | 181 | 4.0 | 7.0 | 0.00 | 0.00 | 0.00 | 39 | 1008.9 |
| 20260505183518 | 82 | 26 | 2.0 | 2.0 | 0.00 | 0.00 | 0.00 | 46 | 1008.7 |
| 20260505183016 | 82 | 74 | 2.0 | 3.0 | 0.00 | 0.00 | 0.00 | 40 | 1008.9 |
| 20260505182512 | 82 | 63 | 3.0 | 6.0 | 0.00 | 0.00 | 0.00 | 42 | 1009.1 |
| 20260505182008 | 83 | 50 | 2.0 | 3.0 | 0.00 | 0.00 | 0.00 | 38 | 1009.3 |
| 20260505181505 | 82 | 354 | 3.0 | 3.0 | 0.00 | 0.00 | 0.00 | 39 | 1009.1 |
| 20260505181003 | 83 | 2 | 5.0 | 6.0 | 0.00 | 0.00 | 0.00 | 40 | 1009.2 |
| 20260505180458 | 85 | 13 | 1.0 | 2.0 | 0.00 | 0.00 | 0.00 | 38 | 1008.8 |
| 20260505175955 | 84 | 15 | 3.0 | 5.0 | 0.00 | 0.00 | 0.00 | 39 | 1008.9 |
| 20260505175451 | 84 | 15 | 2.0 | 2.0 | 0.00 | 0.00 | 0.00 | 39 | 1009.2 |
| 20260505174948 | 84 | 126 | 4.0 | 7.0 | 0.00 | 0.00 | 0.00 | 40 | 1009.2 |
| 20260505174445 | 83 | 197 | 6.0 | 7.0 | 0.00 | 0.00 | 0.00 | 44 | 1009.3 |
| 20260505173941 | 83 | 180 | 2.0 | 3.0 | 0.00 | 0.00 | 0.00 | 44 | 1009.4 |
| 20260505173438 | 82 | 350 | 5.0 | 10.0 | 0.00 | 0.00 | 0.00 | 40 | 1009.6 |
| 20260505172935 | 83 | 215 | 5.0 | 8.0 | 0.00 | 0.00 | 0.00 | 44 | 1009.5 |
| 20260505172433 | 82 | 194 | 3.0 | 3.0 | 0.00 | 0.00 | 0.00 | 47 | 1009.7 |
| 20260505171932 | 82 | 162 | 6.0 | 8.0 | 0.00 | 0.00 | 0.00 | 44 | 1009.7 |
| 20260505171430 | 82 | 214 | 6.0 | 8.0 | 0.00 | 0.00 | 0.00 | 46 | 1009.8 |
| 20260505170926 | 81 | 33 | 2.0 | 2.0 | 0.00 | 0.00 | 0.00 | 47 | 1009.6 |
| 20260505170423 | 81 | 68 | 3.0 | 5.0 | 0.00 | 0.00 | 0.00 | 44 | 1009.8 |
| 20260505165918 | 81 | 211 | 0.0 | 1.0 | 0.00 | 0.00 | 0.00 | 44 | 1010.0 |
| 20260505165415 | 82 | 98 | 3.0 | 5.0 | 0.00 | 0.00 | 0.00 | 47 | 1009.8 |
| 20260505164910 | 82 | 142 | 3.0 | 5.0 | 0.00 | 0.00 | 0.00 | 46 | 1010.1 |
| 20260505164407 | 81 | 259 | 3.0 | 3.0 | 0.00 | 0.00 | 0.00 | 47 | 1010.1 |
| 20260505163905 | 80 | 33 | 2.0 | 2.0 | 0.00 | 0.00 | 0.00 | 49 | 1010.3 |
| 20260505163404 | 80 | 43 | 4.0 | 6.0 | 0.00 | 0.00 | 0.00 | 45 | 1010.3 |
| 20260505162902 | 80 | 346 | 3.0 | 6.0 | 0.00 | 0.00 | 0.00 | 52 | 1010.4 |
| 20260505162357 | 79 | 1 | 2.0 | 2.0 | 0.00 | 0.00 | 0.00 | 45 | 1010.5 |
| 20260505161855 | 79 | 141 | 5.0 | 8.0 | 0.00 | 0.00 | 0.00 | 51 | 1010.7 |
| 20260505161351 | 79 | 44 | 2.0 | 2.0 | 0.00 | 0.00 | 0.00 | 52 | 1010.6 |
| 20260505160849 | 77 | 144 | 1.0 | 6.0 | 0.00 | 0.00 | 0.00 | 52 | 1010.4 |
| 20260505160347 | 77 | 118 | 2.0 | 2.0 | 0.00 | 0.00 | 0.00 | 48 | 1010.7 |
| 20260505153326 | 78 | 237 | 3.0 | 5.0 | 0.00 | 0.00 | 0.00 | 48 | 1010.8 |
| 20260505152823 | 78 | 123 | 1.0 | 2.0 | 0.00 | 0.00 | 0.00 | 49 | 1011.1 |
| 20260505152320 | 78 | 139 | 2.0 | 2.0 | 0.00 | 0.00 | 0.00 | 50 | 1011.2 |
| 20260505151819 | 78 | 198 | 4.0 | 6.0 | 0.00 | 0.00 | 0.00 | 49 | 1011.4 |
| 20260505151317 | 78 | 53 | 1.0 | 2.0 | 0.00 | 0.00 | 0.00 | 51 | 1011.2 |
| 20260505150814 | 77 | 13 | 0.0 | 0.0 | 0.00 | 0.00 | 0.00 | 50 | 1011.2 |
| 20260505150311 | 77 | 182 | 4.0 | 5.0 | 0.00 | 0.00 | 0.00 | 50 | 1011.4 |
| 20260505140235 | 72 | 117 | 3.0 | 3.0 | 0.00 | 0.00 | 0.00 | 54 | 1012.1 |
| 20260505130159 | 67 | 168 | 3.0 | 5.0 | 0.00 | 0.00 | 0.00 | 60 | 1012.3 |
| 20260505124649 | 66 | 217 | 2.0 | 2.0 | 0.00 | 0.00 | 0.00 | 61 | 1012.6 |
| 20260505124145 | 66 | 193 | 2.0 | 3.0 | 0.00 | 0.00 | 0.00 | 62 | 1012.5 |
| 20260505123641 | 65 | 196 | 5.0 | 6.0 | 0.00 | 0.00 | 0.00 | 62 | 1012.4 |
| 20260505123138 | 64 | 68 | 0.0 | 0.0 | 0.00 | 0.00 | 0.00 | 63 | 1012.3 |
| 20260505122634 | 63 | 225 | 2.0 | 5.0 | 0.00 | 0.00 | 0.00 | 64 | 1012.3 |
| 20260505122132 | 63 | 85 | 2.0 | 3.0 | 0.00 | 0.00 | 0.00 | 64 | 1012.2 |
| 20260505121628 | 63 | 206 | 4.0 | 6.0 | 0.00 | 0.00 | 0.00 | 63 | 1012.4 |
| 20260505121125 | 62 | 58 | 0.0 | 0.0 | 0.00 | 0.00 | 0.00 | 66 | 1012.5 |
| 20260505120621 | 62 | 53 | 0.0 | 0.0 | 0.00 | 0.00 | 0.00 | 65 | 1012.5 |
| 20260505120117 | 62 | 44 | 0.0 | 0.0 | 0.00 | 0.00 | 0.00 | 66 | 1012.5 |
| 20260505115612 | 62 | 58 | 0.0 | 0.0 | 0.00 | 0.00 | 0.00 | 67 | 1012.6 |
| 20260505115110 | 61 | 51 | 0.0 | 0.0 | 0.00 | 0.00 | 0.00 | 67 | 1012.6 |
| 20260505114606 | 61 | 80 | 0.0 | 0.0 | 0.00 | 0.00 | 0.00 | 65 | 1012.5 |
| 20260505114103 | 60 | 233 | 0.0 | 2.0 | 0.00 | 0.00 | 0.00 | 65 | 1012.5 |
| 20260505113559 | 60 | 205 | 1.0 | 6.0 | 0.00 | 0.00 | 0.00 | 68 | 1012.2 |